{"data":{"norad_id":58484,"epoch":"2026-05-24T22:47:55.058784Z","epoch_age_seconds":82438,"freshness":"FRESH","line1":"1 58484U 23186M   26144.94994281 -.00000582  00000+0 -11611-4 0  9992","line2":"2 58484  43.0032 352.5819 0001778 262.7450  97.3200 15.27568532137540","mean_motion":15.27568532,"eccentricity":0.0001778,"inclination_deg":43.0032,"raan_deg":352.5819,"arg_perigee_deg":262.745,"mean_anomaly_deg":97.32,"bstar":-1.1611e-5,"rev_number":13754,"period_min":94.267456407645,"perigee_km":481.86351057863,"apogee_km":484.30336056552,"semimajor_km":6861.2204355721,"source":"CELESTRAK","updated_at":"2026-05-25T13:38:18.652181Z"}}